ギブス彗星

C/2009 K4 ( Gibbs )

English version
Home page
Updated on March 17, 2010

---------------------------------------------------------------------

・ プロフィール

発見日 2009年5月27日
発見光度 17.0等
発見者 A. R. Gibbs (Catalina)

・ 写真集

・ 軌道要素

Epoch 2009 June 18.0 TT = JDT 2455000.5
T 2009 June 19.37894 TT                                 MPC
q   1.5490829            (2000.0)            P               Q
z  +0.0235930      Peri.  127.46772     -0.85313329     -0.43593790
 +/-0.0000000      Node    30.12010     +0.05670379     -0.62353734
e   0.9634526      Incl.   34.82458     +0.51860223     -0.64896790

・ 星図

・ 光度変化

        m1 = 11.5 + 5 logΔ + 10.0 log r

---------------------------------------------------------------------

軌道要素はM.P.E.C. 2009-P12に掲載されたものです。
星図はステラナビゲータ Ver.8 (アストロアーツ) で作成したものです。
光度グラフはComet for Windowsで作成したものです。

---------------------------------------------------------------------

Copyright(C) Seiichi Yoshida (comet@aerith.net). All rights reserved.